User: anonymous   Login
Location: Unspecified
(0.0000°N, 0.0000°E)
Time: 01:26:30
(UTC+00:00)
Language:

OFEQ 9 - Orbit

View from above orbital plane
View from above orbital plane
View from above satellite
View from above satellite

Ground track
Ground track

The orbit data is extracted from the following two-line orbital elements,

1 36608U 10031A   21293.72078527 0.00004500  00000-0  15910-3 0    04
2 36608 141.7312  41.6238 0001996 270.7126  89.2867 15.28276569    09
Epoch (UTC): 20 October 2021 17:17:55
Eccentricity: 0.0001996
inclination: 141.7312°
perigee height: 479 km
apogee height: 482 km
right ascension of ascending node: 41.6238°
argument of perigee: 270.7126°
revolutions per day: 15.28276569
mean anomaly at epoch: 89.2867°
orbit number at epoch: 0

The dashed part of the orbit path shows where the satellite is in the earth's shadow,  

DLR